Location: Eboldshausen
(51.7766°N, 10.0050°E)
Time: 00:44:40
(UTC+00:00)

Cosmos 2233 Rocket - Pass Details

Date: 15 November 2025
Orbit: 952 x 989 km, 82.9° (Epoch: 13 December)

Event Time Altitude Azimuth Distance (km) Brightness Sun altitude
Rises 16:12:54 0° 170° (S) 3,679 7.2 -6.9°
Reaches altitude 10° 16:15:28 10° 165° (SSE) 2,738 6.4 -7.3°
Maximum altitude 16:21:31 52° 91° (E) 1,218 4.2 -8.1°
Drops below altitude 10° 16:27:37 10° 18° (NNE) 2,764 6.0 -9.0°
Sets 16:30:12 0° 13° (NNE) 3,716 6.7 -9.4°
